Location: Delettes
(50.6178°N, 2.2123°E)
Time: 05:04:35
(UTC+00:00)

Cosmos 540 Rocket - Pass Details

Date: 27 February 2020
Orbit: 739 x 754 km, 74.1° (Epoch: 29 March)

Event Time Altitude Azimuth Distance (km) Brightness Sun altitude
Rises 19:27:04 0° 189° (S) 3,170 6.7 -19.6°
Reaches altitude 10° 19:29:26 10° 186° (S) 2,254 5.9 -19.9°
Maximum altitude 19:34:26 57° 108° (ESE) 877 3.4 -20.7°
Drops below altitude 10° 19:39:29 10° 31° (NNE) 2,280 5.8 -21.5°
Sets 19:41:53 0° 27° (NNE) 3,211 6.6 -21.8°
